SITRO-AIS 5 (KATYS)

Last updated on Sat Aug 15 2026 00:03:45 GMT+0000 (Coordinated Universal Time)

1 57176U 23091L 26226.60135447 .00006742 00000+0 23013-3 0 9999 2 57176 97.5015 291.0935 0009328 250.7918 109.2313 15.30622482173270
UTC large
Height (km)
Speed (km/s)
/
Latitude / Longitude
Inclination (degrees)
Orbital Period (minutes)
Azimuth
Elevation
Range (km)
Doppler Factor

Next 0 passes for location: London (51.5072 / 0.1276)

No passes found over London.
SITRO-AIS 5 (KATYS)